Flag for Canada Weather past 2 weeks in Moncton, New Brunswick, Canada

Now
45 °F

Passing clouds.


Feels Like: 38 °F
Forecast: 35 / 54 °F
Wind: 15 mph from Northwest

Location: Moncton

Current Time: Sep 19, 2014 at 11:44:05 AM

Latest Report: Sep 19, 2014 at 11:00 AM


Visibility: 15 mi

Pressure: 30.24 "Hg

Humidity: 57%

Dew point: 30 °F

Location of MonctonLocation

Historic Weather in Moncton — Graph

°F

Moncton temperature yesterday

Maximum temperature yesterday: 64 °F (at 11:00 AM)
Minimum temperature yesterday: 41 °F (at 11:00 PM)
Average temperature yesterday: 53 °F

Past Weeks' High & Low Weather Summary

 TemperatureHumidityPressure
High84 °F (Sep 6, 2:00 PM)100% (Sep 6, 9:56 PM)30.47 "Hg (Sep 6, 9:56 PM)
Low34 °F (Sep 19, 8:00 AM)24% (Sep 8, 3:00 PM)29.65 "Hg (Sep 6, 6:00 PM)
Average58 °F72%30.04 "Hg
* Reported Sep 4 10:00 AM — Sep 19 10:00 AM, Moncton, Weather by CustomWeather, © 2014

Note: Actual official high and low records may vary slightly from our data, if they occured in-between our weather recording intervals... More about our weather records

Advertising

Moncton weather history for previous 24 hours

 ConditionsComfort  
Time TempWeatherWind HumidityBarometerVisibility
10:00 AM
Sep 19
43 °FPassing clouds.12 mph61%30.23 "Hg15 mi
9:00 AM39 °FPassing clouds.12 mph65%30.21 "Hg15 mi
8:00 AM34 °FPassing clouds.7 mph75%30.18 "Hg15 mi
7:00 AM36 °FPassing clouds.9 mph65%30.15 "Hg15 mi
6:00 AM36 °FClear.9 mph70%30.12 "Hg15 mi
5:00 AM36 °FClear.12 mph70%30.10 "Hg15 mi
4:00 AM37 °FClear.12 mph70%30.08 "Hg15 mi
3:00 AM37 °FClear.9 mph75%30.06 "Hg15 mi
2:00 AM39 °FClear.10 mph70%30.05 "Hg15 mi
1:00 AM39 °FClear.8 mph75%30.05 "Hg15 mi
12:00 AM41 °FClear.7 mph76%30.04 "Hg15 mi
11:00 PM
Sep 18
41 °FPassing clouds.8 mph81%30.03 "Hg15 mi
10:00 PM43 °FPassing clouds.7 mph76%30.01 "Hg15 mi
9:00 PM46 °FPassing clouds.8 mph71%29.99 "Hg15 mi
8:00 PM48 °FScattered clouds.8 mph71%29.97 "Hg15 mi
7:00 PM52 °FScattered clouds.10 mph67%29.95 "Hg15 mi
6:00 PM55 °FPartly sunny.9 mph63%29.93 "Hg15 mi
5:00 PM55 °FPartly sunny.16 mph67%29.91 "Hg15 mi
4:00 PM61 °FPartly sunny.13 mph59%29.88 "Hg15 mi
3:00 PM61 °FMostly cloudy.14 mph63%29.87 "Hg15 mi
2:00 PM64 °FPartly sunny.13 mph60%29.86 "Hg15 mi
1:00 PM61 °FSprinkles. Partly sunny.16 mph68%29.86 "Hg15 mi
12:00 PM64 °FPartly sunny.20 mph56%29.86 "Hg15 mi
11:00 AM64 °FScattered clouds.14 mph64%29.86 "Hg15 mi
Weather by CustomWeather, © 2014

See weather overviewHow to use our weather pages